GW1238 Weather Reports


time (UTC)temp
C
wind
direction
speed
KPH
gust
KPH
rain 1hr
cm
rain 24hr
cm
rain mn
cm
humidity
%
barometer
mb
20260906234750 30 333 3.2 3.2 0.00 0.00 0.00 67 1013.3
20260906234245 30 355 1.6 3.2 0.00 0.00 0.00 66 1013.0
20260906233744 31 331 3.2 3.2 0.00 0.00 0.00 62 1013.0
20260906233244 31 307 1.6 3.2 0.00 0.00 0.00 65 1013.2
20260906232739 32 314 3.2 3.2 0.00 0.00 0.00 59 1013.1
20260906232239 32 335 4.8 6.4 0.00 0.00 0.00 58 1012.8
20260906231734 32 328 3.2 4.8 0.00 0.00 0.00 58 1013.0
20260906231229 32 356 1.6 4.8 0.00 0.00 0.00 58 1012.9
20260906230729 32 340 4.8 4.8 0.00 0.00 0.00 56 1012.8
20260906230223 32 305 3.2 3.2 0.00 0.00 0.00 61 1012.7
20260906225722 32 17 1.6 3.2 0.00 0.00 0.00 59 1012.4
20260906225218 32 320 1.6 3.2 0.00 0.00 0.00 56 1012.5
20260906224713 33 338 1.6 3.2 0.00 0.00 0.00 57 1012.4
20260906224210 33 326 3.2 4.8 0.00 0.00 0.00 53 1012.4
20260906223706 34 7 1.6 3.2 0.00 0.00 0.00 51 1012.6
20260906223201 35 118 3.2 3.2 0.00 0.00 0.00 54 1012.6
20260906222659 35 318 1.6 3.2 0.00 0.00 0.00 51 1012.8
20260906222157 34 138 1.6 3.2 0.00 0.00 0.00 59 1012.6
20260906221656 36 96 0.0 3.2 0.00 0.00 0.00 50 1012.7
20260906221150 35 325 3.2 4.8 0.00 0.00 0.00 50 1012.9
20260906220646 36 139 0.0 1.6 0.00 0.00 0.00 51 1012.7
20260906220142 35 316 3.2 6.4 0.00 0.00 0.00 50 1012.6
20260906215640 35 22 4.8 4.8 0.00 0.00 0.00 51 1012.4
20260906215139 35 38 3.2 6.4 0.00 0.00 0.00 49 1012.2
20260906214638 35 14 1.6 4.8 0.00 0.00 0.00 51 1012.3
20260906214133 35 301 3.2 4.8 0.00 0.00 0.00 50 1012.4
20260906213632 35 338 3.2 6.4 0.00 0.00 0.00 50 1012.3
20260906213126 36 6 0.0 3.2 0.00 0.00 0.00 49 1012.1
20260906212624 36 133 0.0 3.2 0.00 0.00 0.00 48 1012.1
20260906212120 35 330 3.2 6.4 0.00 0.00 0.00 49 1012.0
20260906211619 35 193 1.6 3.2 0.00 0.00 0.00 54 1012.1
20260906211115 35 106 4.8 11.3 0.00 0.00 0.00 53 1011.8
20260906210610 36 174 0.0 1.6 0.00 0.00 0.00 57 1012.0
20260906210105 34 109 4.8 4.8 0.00 0.00 0.00 56 1011.9
20260906205601 35 121 0.0 6.4 0.00 0.00 0.00 54 1012.1
20260906205057 35 118 0.0 1.6 0.00 0.00 0.00 57 1012.2
20260906204555 33 133 3.2 4.8 0.00 0.00 0.00 60 1012.3
20260906204051 33 133 3.2 4.8 0.00 0.00 0.00 61 1012.2
20260906203550 33 115 3.2 4.8 0.00 0.00 0.00 64 1012.5
20260906203045 33 115 3.2 6.4 0.00 0.00 0.00 63 1012.4
20260906202542 33 124 3.2 4.8 0.00 0.00 0.00 59 1012.5
20260906202041 33 109 3.2 4.8 0.00 0.00 0.00 67 1012.4
20260906201542 33 107 3.2 4.8 0.00 0.00 0.00 65 1012.6
20260906201041 33 108 3.2 6.4 0.00 0.00 0.00 61 1012.6
20260906200537 33 97 4.8 6.4 0.00 0.00 0.00 62 1012.8
20260906200033 33 97 4.8 6.4 0.00 0.00 0.00 59 1013.0
20260906195528 33 110 3.2 4.8 0.00 0.00 0.00 66 1013.1
20260906195025 33 109 3.2 4.8 0.00 0.00 0.00 64 1013.2
20260906194520 33 116 6.4 9.7 0.00 0.00 0.00 64 1013.1
20260906194016 33 99 4.8 9.7 0.00 0.00 0.00 63 1013.2
20260906193515 33 119 4.8 6.4 0.00 0.00 0.00 61 1013.4
20260906193011 33 116 4.8 6.4 0.00 0.00 0.00 66 1013.3
20260906192506 32 119 4.8 4.8 0.00 0.00 0.00 66 1013.4
20260906192005 32 116 4.8 4.8 0.00 0.00 0.00 68 1013.6
20260906191500 33 94 4.8 9.7 0.00 0.00 0.00 66 1013.5
20260906190959 32 99 6.4 6.4 0.00 0.00 0.00 69 1013.7
20260906190458 33 99 6.4 9.7 0.00 0.00 0.00 63 1013.8
20260906185953 32 128 4.8 4.8 0.00 0.00 0.00 67 1014.1
20260906185452 32 118 4.8 6.4 0.00 0.00 0.00 68 1014.1
20260906184952 32 108 6.4 6.4 0.00 0.00 0.00 67 1014.4
20260906184447 32 109 6.4 6.4 0.00 0.00 0.00 66 1014.4
20260906183942 32 123 4.8 4.8 0.00 0.00 0.00 66 1014.4
20260906183438 32 120 4.8 4.8 0.00 0.00 0.00 70 1014.0
20260906182934 32 128 3.2 4.8 0.00 0.00 0.00 69 1014.4
20260906182429 32 120 3.2 3.2 0.00 0.00 0.00 66 1014.4
20260906181925 32 143 4.8 6.4 0.00 0.00 0.00 69 1014.7
20260906181421 32 123 3.2 4.8 0.00 0.00 0.00 65 1014.7
20260906180916 32 134 3.2 4.8 0.00 0.00 0.00 66 1014.6
20260906180411 31 116 4.8 4.8 0.00 0.00 0.00 69 1014.7
20260906175909 31 117 3.2 4.8 0.00 0.00 0.00 68 1014.9
20260906175404 31 117 3.2 4.8 0.00 0.00 0.00 72 1015.0
20260906174902 31 106 3.2 6.4 0.00 0.00 0.00 68 1014.9
20260906174402 31 114 3.2 4.8 0.00 0.00 0.00 68 1015.3
20260906173857 31 90 3.2 4.8 0.00 0.00 0.00 68 1015.2
20260906173353 31 106 4.8 4.8 0.00 0.00 0.00 70 1015.3
20260906172851 31 107 4.8 4.8 0.00 0.00 0.00 68 1015.4
20260906172348 31 126 3.2 3.2 0.00 0.00 0.00 72 1015.5
20260906171843 31 115 3.2 3.2 0.00 0.00 0.00 68 1015.5
20260906171337 31 132 3.2 3.2 0.00 0.00 0.00 71 1015.4
20260906170833 31 141 3.2 3.2 0.00 0.00 0.00 69 1015.4
20260906170329 31 135 3.2 3.2 0.00 0.00 0.00 72 1015.7
20260906165825 31 135 3.2 3.2 0.00 0.00 0.00 68 1015.4
20260906165324 30 118 3.2 3.2 0.00 0.00 0.00 67 1015.7
20260906164819 30 115 3.2 3.2 0.00 0.00 0.00 71 1015.8
20260906164319 30 115 1.6 3.2 0.00 0.00 0.00 68 1015.9
20260906163815 30 108 1.6 3.2 0.00 0.00 0.00 68 1015.8
20260906163311 30 114 3.2 4.8 0.00 0.00 0.00 67 1015.9
20260906162808 30 121 3.2 4.8 0.00 0.00 0.00 73 1016.0
20260906162307 30 103 4.8 4.8 0.00 0.00 0.00 71 1016.1
20260906161802 30 99 3.2 3.2 0.00 0.00 0.00 72 1015.9
20260906161301 30 112 3.2 4.8 0.00 0.00 0.00 71 1016.0
20260906160800 30 119 3.2 4.8 0.00 0.00 0.00 72 1016.0
20260906160255 30 101 4.8 4.8 0.00 0.00 0.00 74 1016.2
20260906155753 29 118 3.2 6.4 0.00 0.00 0.00 71 1016.2
20260906155247 30 123 3.2 3.2 0.00 0.00 0.00 73 1016.2
20260906154743 29 133 1.6 4.8 0.00 0.00 0.00 69 1016.1
20260906154238 29 112 3.2 6.4 0.00 0.00 0.00 68 1016.1
20260906153736 29 98 3.2 4.8 0.00 0.00 0.00 70 1016.2
20260906153232 29 109 3.2 4.8 0.00 0.00 0.00 71 1016.1
20260906152727 29 95 4.8 6.4 0.00 0.00 0.00 72 1016.1
20260906152226 29 119 1.6 4.8 0.00 0.00 0.00 75 1016.2
20260906151726 29 113 1.6 3.2 0.00 0.00 0.00 73 1016.2
20260906151222 29 126 0.0 1.6 0.00 0.00 0.00 73 1016.2
20260906150718 28 107 1.6 3.2 0.00 0.00 0.00 74 1016.0
20260906150212 28 113 1.6 3.2 0.00 0.00 0.00 75 1016.0
20260906145712 28 122 1.6 3.2 0.00 0.00 0.00 77 1016.0
20260906145211 28 113 3.2 4.8 0.00 0.00 0.00 73 1016.2
20260906144706 28 117 1.6 3.2 0.00 0.00 0.00 73 1016.2
20260906144201 28 143 1.6 4.8 0.00 0.00 0.00 75 1016.3
20260906143700 28 135 3.2 4.8 0.00 0.00 0.00 74 1016.2
20260906143157 28 127 3.2 3.2 0.00 0.00 0.00 72 1016.4
20260906142652 29 141 1.6 3.2 0.00 0.00 0.00 71 1016.3
20260906142147 30 182 3.2 3.2 0.00 0.00 0.00 73 1016.2
20260906141646 29 177 3.2 4.8 0.00 0.00 0.00 73 1016.3
20260906141141 28 182 4.8 6.4 0.00 0.00 0.00 76 1016.2
20260906140639 28 197 4.8 4.8 0.00 0.00 0.00 77 1016.4
20260906140134 28 204 4.8 6.4 0.00 0.00 0.00 77 1016.2
20260906135631 28 205 4.8 4.8 0.00 0.00 0.00 77 1016.2
20260906135128 28 201 4.8 4.8 0.00 0.00 0.00 77 1016.4
20260906134623 28 197 3.2 6.4 0.00 0.00 0.00 79 1016.3
20260906134118 28 212 3.2 3.2 0.00 0.00 0.00 78 1016.6
20260906133615 28 200 3.2 4.8 0.00 0.00 0.00 78 1016.4
20260906133114 28 183 3.2 3.2 0.00 0.00 0.00 77 1016.3
20260906132609 29 170 3.2 3.2 0.00 0.00 0.00 77 1016.5
20260906132105 28 128 0.0 1.6 0.00 0.00 0.00 77 1016.4
20260906131600 28 164 1.6 1.6 0.00 0.00 0.00 80 1016.5
20260906131056 28 152 0.0 3.2 0.00 0.00 0.00 80 1016.4
20260906130555 27 190 3.2 3.2 0.00 0.00 0.00 81 1016.6
20260906130051 27 177 1.6 3.2 0.00 0.00 0.00 83 1016.7
20260906125548 26 211 4.8 4.8 0.00 0.00 0.00 83 1016.4
20260906125048 26 204 3.2 4.8 0.00 0.00 0.00 83 1016.6
20260906124544 26 231 1.6 1.6 0.00 0.00 0.00 87 1016.5
20260906124039 25 59 0.0 3.2 0.00 0.00 0.00 89 1016.4
20260906123538 25 280 1.6 3.2 0.00 0.00 0.00 91 1016.4
20260906123033 24 77 0.0 1.6 0.00 0.00 0.00 93 1016.3
20260906122526 24 2 1.6 3.2 0.00 0.00 0.00 94 1016.6
20260906122023 24 133 0.0 1.6 0.00 0.00 0.00 94 1016.3
20260906121519 23 97 0.0 1.6 0.00 0.00 0.00 95 1016.3
20260906121016 23 31 0.0 1.6 0.00 0.00 0.00 95 1016.1
20260906120515 23 348 1.6 1.6 0.00 0.00 0.00 95 1016.1
20260906120014 23 25 0.0 3.2 0.00 0.00 0.00 95 1016.2
20260906115508 23 335 1.6 3.2 0.00 0.00 0.00 95 1016.1
20260906115008 23 354 1.6 3.2 0.00 0.00 0.00 95 1016.2
20260906114503 23 339 3.2 3.2 0.00 0.00 0.00 95 1016.0
20260906113959 23 348 1.6 3.2 0.00 0.00 0.00 95 1016.0
20260906113457 23 326 3.2 4.8 0.00 0.00 0.00 94 1015.9
20260906112953 23 353 1.6 1.6 0.00 0.00 0.00 94 1015.8
20260906112448 23 31 1.6 1.6 0.00 0.00 0.00 94 1015.6
20260906111944 23 344 1.6 3.2 0.00 0.00 0.00 94 1015.7
20260906111443 23 16 1.6 3.2 0.00 0.00 0.00 94 1015.7
20260906110938 23 352 1.6 3.2 0.00 0.00 0.00 94 1015.6
20260906110433 23 341 1.6 3.2 0.00 0.00 0.00 93 1015.6
20260906105932 23 340 1.6 3.2 0.00 0.00 0.00 93 1015.3
20260906105428 23 341 1.6 3.2 0.00 0.00 0.00 92 1015.4
20260906104924 24 320 1.6 3.2 0.00 0.00 0.00 92 1015.0
20260906104422 24 338 1.6 3.2 0.00 0.00 0.00 91 1015.1
20260906103921 24 345 3.2 3.2 0.00 0.00 0.00 92 1015.3
20260906103419 24 352 1.6 4.8 0.00 0.00 0.00 91 1015.2
20260906102915 24 312 1.6 1.6 0.00 0.00 0.00 90 1015.3
20260906102414 24 88 1.6 1.6 0.00 0.00 0.00 90 1015.3
20260906101909 24 350 1.6 3.2 0.00 0.00 0.00 91 1015.3
20260906101404 24 7 1.6 3.2 0.00 0.00 0.00 91 1015.1
20260906100900 24 327 1.6 1.6 0.00 0.00 0.00 91 1015.2
20260906100359 24 358 0.0 1.6 0.00 0.00 0.00 89 1015.3
20260906095855 25 4 0.0 0.0 0.00 0.00 0.00 89 1015.3
20260906095350 25 49 0.0 0.0 0.00 0.00 0.00 88 1015.1
20260906094849 25 8 0.0 1.6 0.00 0.00 0.00 88 1015.3
20260906094344 25 336 1.6 3.2 0.00 0.00 0.00 88 1015.4
20260906093841 25 333 3.2 3.2 0.00 0.00 0.00 87 1015.3
20260906093336 25 318 1.6 1.6 0.00 0.00 0.00 86 1015.4
20260906092831 25 162 0.0 0.0 0.00 0.00 0.00 86 1015.5
20260906092331 25 212 0.0 1.6 0.00 0.00 0.00 85 1015.4
20260906091827 25 200 0.0 1.6 0.00 0.00 0.00 85 1015.7
20260906091323 25 140 0.0 0.0 0.00 0.00 0.00 85 1015.6
20260906090819 25 300 1.6 1.6 0.00 0.00 0.00 85 1015.7
20260906090318 25 95 0.0 1.6 0.00 0.00 0.00 84 1015.7
20260906085818 25 303 3.2 4.8 0.00 0.00 0.00 84 1015.6
20260906085311 25 356 1.6 3.2 0.00 0.00 0.00 84 1015.7
20260906084807 25 87 0.0 3.2 0.00 0.00 0.00 84 1015.7
20260906084306 25 113 0.0 3.2 0.00 0.00 0.00 85 1016.0
20260906083800 25 51 0.0 1.6 0.00 0.00 0.00 87 1016.0
20260906083256 25 307 1.6 4.8 0.00 0.00 0.00 88 1016.3
20260906082751 24 114 1.6 4.8 0.00 0.00 0.00 90 1016.1
20260906082246 24 359 1.6 3.2 0.00 0.00 0.00 93 1016.0
20260906081742 24 51 0.0 3.2 0.00 0.00 0.00 94 1016.1
20260906081237 24 12 1.6 3.2 0.00 0.00 0.00 94 1016.0
20260906080734 24 334 3.2 3.2 0.00 0.00 0.00 94 1015.8
20260906080230 24 348 1.6 3.2 0.00 0.00 0.00 94 1016.0
20260906075729 24 20 1.6 3.2 0.00 0.00 0.00 94 1015.9
20260906075224 24 340 1.6 1.6 0.00 0.00 0.00 94 1015.7
20260906074720 24 67 0.0 1.6 0.00 0.00 0.00 94 1015.6
20260906074219 24 330 1.6 3.2 0.00 0.00 0.00 93 1015.4
20260906073719 25 0 1.6 1.6 0.00 0.00 0.00 93 1015.2
20260906073214 24 149 0.0 0.0 0.00 0.00 0.00 93 1015.1
20260906072710 24 119 0.0 0.0 0.00 0.00 0.00 93 1015.1
20260906072205 24 146 0.0 0.0 0.00 0.00 0.00 93 1015.5
20260906071701 24 45 1.6 1.6 0.00 0.00 0.00 93 1015.2
20260906071200 24 29 0.0 1.6 0.00 0.00 0.00 93 1015.2
20260906070657 24 343 3.2 3.2 0.00 0.00 0.00 93 1015.6
20260906070153 24 258 0.0 3.2 0.00 0.00 0.00 93 1015.8
20260906065652 24 356 0.0 4.8 0.00 0.00 0.00 94 1016.1
20260906065148 24 326 3.2 9.7 0.00 0.00 0.00 96 1016.1
20260906064643 24 337 4.8 4.8 0.00 0.00 0.00 96 1015.6
20260906064139 24 331 1.6 3.2 0.00 0.00 0.00 97 1015.7
20260906063639 23 341 3.2 3.2 0.00 0.00 0.00 96 1015.8
20260906063134 23 343 1.6 1.6 0.00 0.00 0.00 96 1015.8
20260906062630 23 6 1.6 3.2 0.00 0.00 0.00 96 1015.8
20260906062129 23 327 1.6 3.2 0.00 0.00 0.00 96 1016.0
20260906061625 23 338 3.2 3.2 0.00 0.00 0.00 96 1016.1
20260906061125 23 336 1.6 3.2 0.00 0.00 0.00 96 1015.9
20260906060621 23 346 1.6 1.6 0.00 0.00 0.00 96 1015.7
20260906060119 23 358 0.0 1.6 0.00 0.00 0.00 96 1015.8
20260906055614 23 338 3.2 4.8 0.00 0.00 0.00 96 1015.6
20260906055109 23 329 3.2 3.2 0.00 0.00 0.00 96 1015.6
20260906054610 23 352 1.6 1.6 0.00 0.00 0.00 96 1015.7
20260906054105 23 28 0.0 1.6 0.00 0.00 0.00 96 1015.6
20260906053601 23 336 1.6 3.2 0.00 0.00 0.00 96 1015.7
20260906053057 23 341 3.2 3.2 0.00 0.00 0.00 95 1015.6
20260906052552 23 354 3.2 3.2 0.00 0.00 0.00 95 1015.5
20260906052049 23 337 1.6 3.2 0.00 0.00 0.00 95 1015.6
20260906051545 23 334 3.2 3.2 0.00 0.00 0.00 95 1015.7
20260906051040 23 339 1.6 3.2 0.00 0.00 0.00 95 1015.7
20260906050535 23 351 1.6 3.2 0.00 0.00 0.00 95 1015.6
20260906050030 23 336 1.6 4.8 0.00 0.00 0.00 94 1015.8
20260906045528 23 329 3.2 3.2 0.00 0.00 0.00 94 1015.9
20260906045024 23 342 1.6 4.8 0.00 0.00 0.00 94 1015.8
20260906044519 23 341 1.6 3.2 0.00 0.00 0.00 94 1015.9
20260906044015 23 347 3.2 3.2 0.00 0.00 0.00 94 1016.2
20260906043510 23 342 3.2 4.8 0.00 0.00 0.00 94 1016.2
20260906043007 24 357 3.2 3.2 0.00 0.00 0.00 93 1016.0
20260906042505 23 341 3.2 3.2 0.00 0.00 0.00 93 1016.3
20260906042005 24 350 1.6 3.2 0.00 0.00 0.00 93 1016.1
20260906041502 24 341 1.6 1.6 0.00 0.00 0.00 93 1016.2
20260906041001 24 354 1.6 3.2 0.00 0.00 0.00 93 1016.2
20260906040456 24 342 3.2 4.8 0.00 0.00 0.00 94 1016.0
20260906035951 24 344 1.6 3.2 0.00 0.00 0.00 93 1016.2
20260906035447 24 336 1.6 3.2 0.00 0.00 0.00 93 1016.1
20260906034943 24 17 1.6 1.6 0.00 0.00 0.00 93 1016.1
20260906034442 24 349 1.6 3.2 0.00 0.00 0.00 93 1016.1
20260906033938 24 344 1.6 1.6 0.00 0.00 0.00 93 1016.0
20260906033438 24 343 1.6 3.2 0.00 0.00 0.00 92 1016.4
20260906032934 24 344 1.6 3.2 0.00 0.00 0.00 92 1016.3
20260906032431 24 330 3.2 3.2 0.00 0.00 0.00 91 1016.1
20260906031930 25 355 1.6 3.2 0.00 0.00 0.00 92 1016.3
20260906031426 25 329 1.6 1.6 0.00 0.00 0.00 92 1016.2
20260906030921 25 5 1.6 3.2 0.00 0.00 0.00 92 1016.2
20260906030415 25 331 1.6 3.2 0.00 0.00 0.00 92 1016.4
20260906025910 25 348 1.6 3.2 0.00 0.00 0.00 91 1016.4
20260906025404 25 344 3.2 3.2 0.00 0.00 0.00 91 1016.4
20260906024903 25 344 3.2 3.2 0.00 0.00 0.00 92 1016.2
20260906024402 25 341 3.2 4.8 0.00 0.00 0.00 91 1016.0
20260906023858 25 332 1.6 3.2 0.00 0.00 0.00 91 1015.7
20260906023355 25 333 1.6 3.2 0.00 0.00 0.00 91 1015.7
20260906022854 25 335 1.6 3.2 0.00 0.00 0.00 90 1015.7
20260906022349 25 15 0.0 1.6 0.00 0.00 0.00 90 1015.7
20260906021845 25 335 1.6 3.2 0.00 0.00 0.00 90 1015.6
20260906021344 25 351 1.6 3.2 0.00 0.00 0.00 90 1015.5
20260906020839 25 341 1.6 3.2 0.00 0.00 0.00 90 1015.6
20260906020338 25 341 3.2 3.2 0.00 0.00 0.00 90 1015.5
20260906015833 25 337 3.2 4.8 0.00 0.00 0.00 89 1015.7
20260906015332 25 336 3.2 3.2 0.00 0.00 0.00 89 1015.6
20260906014832 25 341 3.2 3.2 0.00 0.00 0.00 89 1015.6
20260906014327 25 341 3.2 3.2 0.00 0.00 0.00 88 1015.3
20260906013824 25 340 3.2 3.2 0.00 0.00 0.00 88 1015.5
20260906013319 25 332 3.2 3.2 0.00 0.00 0.00 88 1015.4
20260906012814 25 325 1.6 3.2 0.00 0.00 0.00 88 1015.3
20260906012314 25 341 3.2 4.8 0.00 0.00 0.00 88 1015.1
20260906011809 25 334 3.2 3.2 0.00 0.00 0.00 88 1015.4
20260906011309 25 340 1.6 4.8 0.00 0.00 0.00 88 1015.3
20260906010806 25 344 1.6 3.2 0.00 0.00 0.00 86 1015.3
20260906010301 26 0 1.6 3.2 0.00 0.00 0.00 87 1015.3
20260906005756 26 332 1.6 3.2 0.00 0.00 0.00 86 1015.0
20260906005255 26 339 1.6 3.2 0.00 0.00 0.00 86 1015.2
20260906004754 26 336 1.6 3.2 0.00 0.00 0.00 85 1014.8
20260906004249 26 327 3.2 3.2 0.00 0.00 0.00 85 1015.1
20260906003749 26 35 0.0 1.6 0.00 0.00 0.00 85 1014.8
20260906003245 26 334 1.6 3.2 0.00 0.00 0.00 85 1014.7
20260906002741 26 335 3.2 3.2 0.00 0.00 0.00 85 1014.6
20260906002240 26 334 3.2 3.2 0.00 0.00 0.00 85 1015.0
20260906001736 26 335 3.2 3.2 0.00 0.00 0.00 84 1015.0
20260906001230 26 14 3.2 3.2 0.00 0.00 0.00 84 1014.8
20260906000726 26 353 1.6 3.2 0.00 0.00 0.00 82 1014.6
20260906000227 27 345 1.6 3.2 0.00 0.00 0.00 82 1014.9
20260905235726 27 5 0.0 0.0 0.00 0.00 0.00 81 1015.0
20260905235221 27 31 1.6 1.6 0.00 0.00 0.00 79 1015.1